Regional Weather Roundup
Issued by NWS

Home | Current Version | Previous Version | Text Only | Print | Product List | Glossary On
Versions: 1 2 3 4 5 6 7 8 9 10 11 12 13 14 15 16 17 18 19 20 21 22 23 24 25 26 27 28 29 30 31 32 33 34 35 36 37 38 39 40 41 42 43 44 45 46 47 48 49 50
000
ASUS43 KMKX 041100
RWRWI

WISCONSIN REGIONAL WEATHER ROUNDUP
NATIONAL WEATHER SERVICE MILWAUKEE/SULLIVAN WI
600 AM CDT MON MAY 04 2015

NOTE: "FAIR" INDICATES FEW OR NO CLOUDS BELOW 12,000 FEET WITH NO
SIGNIFICANT WEATHER AND/OR OBSTRUCTIONS TO VISIBILITY.

WIZ001-002-006>008-014>016-023>028-041200-
NORTHWEST WISCONSIN

CITY           SKY/WX    TMP DP  RH WIND       PRES   REMARKS
SUPERIOR ARPT  CLEAR     45  35  67 N6        30.08R
ASHLAND        CLEAR     40  33  76 W5        30.07R
HAYWARD        CLEAR     37  34  89 CALM      30.07R
SIREN          CLEAR     39  32  76 CALM      30.08R
CUMBERLAND     CLEAR     46  32  57 N8        30.05R
RICE LAKE      CLEAR     48  35  60 N5        30.06R
CHETEK         CLEAR     48  40  74 CALM      30.04R
LADYSMITH      CLEAR     47  39  73 N5        30.05R
EAU CLAIRE     NOT AVBL
MENOMONIE      CLEAR     51  40  66 NW6       30.04R
NEW RICHMOND   CLEAR     49  34  56 N5        30.07R
OSCEOLA        CLEAR     46  37  70 CALM      30.11R
$$

WIZ003>005-009-010-017-018-041200-
NORTH CENTRAL WISCONSIN

CITY           SKY/WX    TMP DP  RH WIND       PRES   REMARKS
MANITOWISH WTR CLEAR     47  35  63 N5        30.01R
ARBOR VITAE    CLEAR     46  37  71 N7        30.00R
WOODRUFF       CLEAR     46  37  71 N7        30.00R
RHINELANDER    CLEAR     49  41  74 CALM      30.01R
EAGLE RIVER    CLEAR     48  37  66 N7        29.99R
LAND O LAKES   CLEAR     49  37  63 N7        30.00R
PHILLIPS       CLEAR     44  38  78 NW3       30.02R
TOMAHAWK       CLEAR     46  42  88 NW5       30.01R
MEDFORD        CLEAR     49  42  76 N10       30.00R
MERRILL        CLEAR     49  46  87 N6        29.99R
$$

WIZ029-030-035-036-043>047-041200-
CENTRAL WISCONSIN

CITY           SKY/WX    TMP DP  RH WIND       PRES   REMARKS
WAUSAU         CLEAR     52  48  86 NW7       29.98R
MOSINEE        CLEAR     52  52 100 NW6       29.99R
MARSHFIELD     PTCLDY    52  50  93 N6        30.00R
STEVENS POINT  FOG       51  51  99 CALM      29.98R VSB 1
WAUPACA        PTCLDY    57  56  97 W5        29.96R
WAUTOMA        NOT AVBL
WISC RAPIDS    PTCLDY    53  51  93 N7        30.00R FOG
CAMP DOUGLAS   MOCLDY    57  57 100 NW6       29.98R
$$

WIZ011>013-019>022-031-037>040-048>050-041200-
NORTHEAST WISCONSIN

CITY           SKY/WX    TMP DP  RH WIND       PRES   REMARKS
ANTIGO         PTCLDY    47  47 100 CALM      29.98R
SHAWANO        PTCLDY    57  55  93 CALM      29.95R
OCONTO         CLOUDY    58  58 100 NW3       29.93R
STURGEON BAY   CLOUDY    55  52  88 NW3       29.96R
GREEN BAY      CLOUDY    59  57  93 NW8       29.95R FOG
MANITOWOC      CLOUDY    55  55 100 CALM      29.93R FOG
APPLETON       MOCLDY    55  55 100 NW8       29.96R FOG
CLINTONVILLE   PTCLDY    55  54  94 NW3       29.95R
OSHKOSH        MOCLDY    57  54  89 W8        29.95R
$$

WIZ032>034-041-042-053>061-041200-
SOUTHWEST WISCONSIN

CITY           SKY/WX    TMP DP  RH WIND       PRES   REMARKS
LA CROSSE      MOCLDY    58  54  86 N7        30.01R
SPARTA         CLOUDY    56  55  96 CALM      30.00R
VIROQUA        CLOUDY    57  57 100 W3        30.01R
BOSCOBEL       CLOUDY    58  56  93 CALM      30.00R
PRAIRIE DU CHI CLOUDY    57  56  96 N5        29.98R
PLATTEVILLE    CLOUDY    56  55  97 NW5       29.97R
$$

WIZ056-057-062-063-064-067-068-041200-
SOUTH CENTRAL WISCONSIN

CITY           SKY/WX    TMP DP  RH WIND       PRES   REMARKS
REEDSBURG      CLOUDY    56  56  99 SW3       29.98R
BARABOO/DELLS  NOT AVBL
LONE ROCK      NOT AVBL
MINERAL POINT  CLOUDY    55  54  94 N8        29.98R FOG
MADISON        CLOUDY    57  55  93 NW3       29.98R
MIDDLETON      CLOUDY    58  58  98 NW7       29.99R
WATERTOWN      CLOUDY    56  56 100 NW8       29.95R
MONROE         CLOUDY    55  54  94 W6        29.94R
JANESVILLE     FOG       55  54  94 CALM      29.93R VSB 3/4
$$

WIZ051-052-058>065-066-070>072-041200-
SOUTHEAST WISCONSIN

CITY           SKY/WX    TMP DP  RH WIND       PRES   REMARKS
MILWAUKEE      CLOUDY    61  53  75 W7        29.92R
WAUKESHA       CLOUDY    54  54 100 W6        29.94R
MILWAUKEE/TIMM CLOUDY    54  52  94 W6        29.93R
RACINE         CLOUDY    60  53  77 NW5       29.93R
BURLINGTON       N/A     52  52  99 CALM      29.92R FOG
KENOSHA        CLOUDY    56  54  93 W5        29.93R
FOND DU LAC    CLOUDY    57  55  93 W10       29.95R
SHEBOYGAN      CLOUDY    56  55  97 W7        29.93R FOG
WEST BEND      CLOUDY    59  55  88 W8        29.94R
JUNEAU         CLOUDY    57  56  95 NW7       29.97R
$$

LSZ147-162-041200-
LAKE SUPERIOR

STATION/POSITION TIME  TEMP    WIND        PRES    WAVE
                       AIR SEA DIR/SP/G            HT/PER
                 (UTC) (F)     (DEG/KT/KT) (MB)    (FT/S)
W MID LAKE BUOY  0950   40 35  300/  6/  6 1016.3R   1
DEVILS ISLAND    1000   46     260/  6/  7 1017.3R
PORT WING        1000   38     170/  5/  5 1017.9R
SAXON HARBOR     1000   43        CALM     1016.9R
$$

LMZ867-665-643>646-041200-
LAKE MICHIGAN

STATION/POSITION TIME  TEMP    WIND        PRES    WAVE
                       AIR SEA DIR/SP/G            HT/PER
                 (UTC) (F)     (DEG/KT/KT) (MB)    (FT/S)
CHAMBERS ISLAND  1000   55     260/  2/  4 1012.9R
NORTHPORT PIER   1000   52     250/  4/ 10 1012.5R
KEWAUNEE LAKESHO 1000   53     330/  2/  6 1011.0F
SHEBOYGAN LAKESH 1000   55     310/ 13/ 15 1012.8R
PORT WASHINGTON  1040   59     310/  4/ 12 1014.2R
ATWATER BUOY     1000   51     290/  4/  6 1013.5R
MILWAUKEE LAKESH 1000   59     340/  3/  4   N/A
KENOSHA   LAKESH 1000   63     270/  4/  5 1012.2F
$$

TC  - TEMPERATURE IN CELSIUS
VSB - VISIBILITY IN STATUTE MILES
WCI - WIND CHILL INDEX
HX  - HEAT INDEX




USA.gov is the U.S. government's official web portal to all federal, state and local government web resources and services.